Location: Boubers
(50.2902°N, 2.2363°E)
Time: 17:22:12
(UTC+00:00)

Daily predictions for brighter satellites

Satellite Brightness Start Highest point End
(mag) Time Altitude Azimuth Time Altitude Azimuth Time Altitude Azimuth
CZ-4B R/B 3.3 16:58:15 10° SSE 17:03:51 88° ENE 17:09:23 10° NNW
Cosmos 1939 Rocket 3.8 17:01:04 10° SE 17:04:24 27° ENE 17:07:44 10° N
YAOGAN 1 4.0 17:02:39 10° E 17:05:31 18° ENE 17:08:24 10° NNE
USA 308 3.1 17:03:01 10° WNW 17:07:17 61° NNE 17:11:31 10° E
Okean O Rocket 1.6 17:03:20 10° SSE 17:07:42 84° ENE 17:12:04 10° NNW
SeaSat 1 4.1 17:04:48 10° ENE 17:07:52 17° NE 17:10:58 10° N
Cosmos 1408 4.3 17:06:19 10° NNE 17:08:18 14° ENE 17:10:17 10° E
Timation 2 Rocket 4.2 17:02:03 10° NNW 17:08:39 81° ENE 17:15:29 10° SE
Cosmos 1331 Rocket 4.1 17:03:47 10° S 17:08:49 57° ESE 17:13:53 10° NNE
Meteor 2-14 Rocket 4.5 17:03:46 10° N 17:09:58 79° E 17:16:05 10° SSE
Cosmos 2227 Rocket 2.4 17:07:08 10° NNW 17:12:38 49° NE 17:18:07 10° SE
Cosmos 1908 3.7 17:09:37 10° SSW 17:13:27 67° WNW 17:17:20 10° N
NOAA 12 4.2 17:08:44 10° SSE 17:14:02 89° E 17:19:25 10° NNW
Cosmos 1726 Rocket 3.9 17:09:55 10° SSE 17:14:03 44° E 17:18:14 10° NNE
USA 215 3.8 17:07:59 10° ENE 17:14:15 50° N 17:20:31 10° WNW
Cosmos 1892 3.8 17:11:12 10° NNE 17:14:23 23° ENE 17:17:33 10° SE
ATLAS 2AS CENTAUR R/B 3.8 17:08:27 10° NW 17:15:25 34° NNE 17:21:57 10° E
Cosmos 2263 Rocket 3.8 17:12:07 10° N 17:15:40 16° NNE 17:19:13 10° ENE
Cosmos 1758 Rocket 3.9 17:11:31 10° NNW 17:15:57 73° W 17:20:16 10° S
Helios 1A Rocket 3.9 17:13:13 10° ESE 17:16:42 27° ENE 17:20:11 10° N
Cosmos 2228 3.0 17:12:55 10° S 17:17:07 62° E 17:21:22 10° NNE
Aureole 3 Rocket 4.0 17:14:58 10° SSE 17:18:50 34° E 17:23:58 10° NNE
Cosmos 1400 Rocket 3.7 17:15:22 10° SSE 17:18:58 30° E 17:22:34 10° NNE
Cosmos 292 Rocket 3.9 17:16:30 10° S 17:21:10 55° ESE 17:25:55 10° NNE
Cosmos 968 Rocket 3.8 17:17:17 10° NNW 17:22:18 44° ENE 17:27:15 10° SE
IRS-1C Rocket 4.3 17:18:09 10° SE 17:23:13 50° ENE 17:28:20 10° N
FALCON 9 DEB 3.6 17:23:59 10° SW 17:27:04 42° SSE 17:29:34 14° E
Cosmos 1300 2.7 17:23:31 10° S 17:27:15 59° E 17:31:02 10° NNE
Lacrosse 5 2.7 17:22:58 10° WNW 17:27:44 39° N 17:32:14 11° ENE
Cosmos 1606 Rocket 3.5 17:25:40 10° S 17:30:02 79° E 17:34:29 10° NNE
FALCON 9 DEB 3.4 17:27:04 10° SW 17:30:08 46° SSE 17:32:31 15° E
CZ-4 R/B 2.2 17:27:08 10° SE 17:30:28 28° ENE 17:33:47 10° N
Cosmos 1697 Rocket 3.9 17:26:30 10° SSE 17:30:32 21° E 17:34:34 10° NE
Cosmos 2058 3.8 17:27:55 10° N 17:31:27 27° ENE 17:34:57 10° SE
SMAP 3.8 17:27:01 10° S 17:31:37 59° W 17:36:14 10° NNW
Cosmos 1825 3.7 17:30:08 10° NNE 17:32:43 17° ENE 17:34:21 14° E
SAR-Lupe-4 4.0 17:30:25 10° NNE 17:33:50 41° E 17:37:14 10° S
ERBS 3.8 17:32:14 10° WNW 17:35:05 25° N 17:37:25 13° NE
SKYMED 2 4.0 17:33:15 10° NNE 17:37:22 39° E 17:41:27 10° SSE
ERS-2 2.0 17:34:11 10° NNE 17:37:51 84° ESE 17:41:30 10° SSW
Cosmos 1110 Rocket 4.2 17:33:12 10° SSW 17:38:27 79° WNW 17:43:42 10° NNE
CZ-2D R/B 3.6 17:34:51 10° SE 17:38:27 42° ENE 17:42:04 10° N
FALCON 9 DEB 3.4 17:35:11 10° WNW 17:38:34 55° N 17:40:54 18° E
ADEOS Rocket 3.8 17:33:34 10° N 17:39:50 63° WNW 17:46:46 10° SSW
SL-4 R/B 1.7 17:36:36 10° W 17:40:08 71° N 17:42:47 18° E
Cosmos 1302 Rocket 4.1 17:35:29 10° S 17:40:37 57° ESE 17:45:49 10° NNE
Cosmos 1346 Rocket 3.4 17:37:32 10° N 17:41:14 34° ENE 17:44:54 10° SE
NOAA 11 4.3 17:36:23 10° SSE 17:41:51 86° WSW 17:47:19 10° NNW
Okean-O 2.9 17:38:52 10° SE 17:43:04 44° ENE 17:47:18 10° N
FALCON 9 DEB 3.2 17:40:18 10° SW 17:43:30 55° SSE 17:45:25 21° E
USA 281 4.0 17:37:59 10° S 17:44:23 55° WSW 17:50:51 10° NNW
SL-08 R/B 4.5 17:38:22 10° N 17:44:30 61° ENE 17:50:32 10° SSE
Cosmos 1340 2.5 17:41:04 10° N 17:44:52 72° ENE 17:48:38 10° SSE
Cosmos 1486 Rocket 4.0 17:42:07 10° NNW 17:47:29 70° ENE 17:52:47 10° SSE
Cosmos 1745 Rocket 4.2 17:43:11 10° N 17:49:18 50° ENE 17:55:26 10° SSE
Cosmos 1315 Rocket 3.8 17:48:16 10° SE 17:51:29 24° E 17:54:02 14° NE
SAR-Lupe-1 4.0 17:48:11 10° NNE 17:51:46 62° ESE 17:55:19 10° S
Cosmos 1689 Rocket 2.3 17:49:39 10° NNE 17:52:27 43° E 17:55:13 10° S
Cosmos 2297 Rocket 2.3 17:46:45 10° NNW 17:52:27 80° WSW 17:58:06 10° SSE
Cosmos 2369 Rocket 4.4 17:48:29 10° W 17:52:36 20° NW 17:56:45 10° N
USA 305 2.9 17:48:21 10° WNW 17:52:42 86° NNE 17:55:45 19° ESE
Cosmos 1980 Rocket 3.6 17:50:17 10° SE 17:53:26 17° ESE 17:53:26 17° ESE
FALCON 9 DEB 3.0 17:50:51 10° WSW 17:54:02 67° SSE 17:55:34 28° ENE
In-Cosmos 22 Rocket 4.0 17:49:12 10° N 17:54:35 80° ENE 18:00:03 10° SSE
CZ-4B R/B 1.8 17:52:03 10° N 17:55:15 61° WNW 17:58:21 10° SSW
Cosmos 1503 Rocket 4.2 17:52:21 10° NNW 17:57:27 51° ENE 18:02:34 10° SE
Cosmos 1953 Rocket 4.5 17:54:06 10° NNW 17:58:24 53° W 18:02:43 10° S
USA 306 2.9 17:54:50 10° WNW 17:59:09 89° SSW 18:01:57 21° ESE
CSL-04 Debris 4.5 17:55:39 10° SE 18:00:47 44° ENE 18:05:58 10° N
Aureole 3 2.5 17:57:55 10° S 18:00:58 84° E 18:03:59 10° NNE
Cosmos 2058 Rocket 3.1 18:01:14 10° S 18:05:44 89° W 18:10:17 10° N
CZ-2C R/B 3.2 18:03:40 10° SSE 18:09:22 64° ENE 18:14:53 10° N
Cosmos 1354 Rocket 4.1 18:04:28 10° NNW 18:09:40 56° ENE 18:14:14 13° SE
CZ-4C R/B 3.6 18:07:22 10° NW 18:13:16 34° NNE 18:17:00 22° ENE
Cosmos 1455 2.5 18:11:35 10° SSE 18:15:10 42° E 18:17:16 22° NE
Cosmos 1992 Rocket 4.1 18:13:25 10° S 18:18:25 49° ESE 18:22:44 14° NE
Cosmos 1709 Rocket 4.2 18:12:46 10° N 18:18:56 48° ENE 18:25:05 10° SSE
SJ 16-02 3.7 18:18:37 10° NNE 18:18:55 10° NNE 18:18:55 10° NNE
Cosmos 1076 Rocket 3.4 18:16:31 10° N 18:20:44 60° ENE 18:24:55 10° SSE
Meteor 2-10 Rocket 3.4 18:15:39 10° S 18:20:51 63° E 18:25:55 10° NNE
Cosmos 2219 4.3 18:18:48 10° NW 18:24:17 46° WSW 18:29:44 10° S
Cosmos 2278 4.4 18:20:03 10° SSE 18:24:51 30° ESE 18:24:51 30° ESE
COSMO-SKYMED 1 2.8 18:21:10 10° N 18:25:32 72° WNW 18:29:51 10° SSW
Meteor 2-3 Rocket 4.4 18:21:38 10° N 18:26:42 31° ENE 18:27:07 31° ENE
Ariane Rocket 3.9 18:30:46 29° NE 18:30:46 29° NE 18:34:49 10° N
Geosat 4.3 18:29:49 36° E 18:30:56 41° ESE 18:35:40 10° S
Cosmos 44 4.1 18:27:27 10° WSW 18:31:54 48° NW 18:35:30 17° NNE
Cosmos 2082 3.7 18:26:39 10° NNW 18:32:26 83° WSW 18:38:04 10° SSE
ATLAS 5 CENTAUR R/B 3.8 18:30:30 10° NW 18:33:53 19° N 18:36:16 14° NNE
H-2A R/B 2.0 18:30:29 10° SSE 18:35:53 75° ENE 18:41:22 10° NNW
Cosmos 883 Rocket 4.5 18:30:15 10° SSE 18:36:10 53° E 18:42:07 10° NNE
SJ-11-01 4.1 18:34:07 12° SSE 18:38:26 79° ENE 18:43:08 10° NNW
ARGOS 3.1 18:36:01 22° SE 18:39:27 62° ENE 18:44:49 10° N
CRYOSAT 2 4.2 18:35:01 10° N 18:39:54 74° E 18:44:46 10° S
Geosat FO 4.4 18:40:50 77° E 18:40:57 79° ENE 18:44:28 10° NNW
YAOGAN 1 2.9 18:36:52 10° S 18:41:09 67° WSW 18:45:29 10° NNW
S3M 3.9 18:35:46 10° S 18:41:53 87° E 18:48:07 10° N
USA 307 3.4 18:38:14 10° WNW 18:42:26 55° SSW 18:43:36 40° SSE
Cosmos 2315 Rocket 4.1 18:37:41 10° SSE 18:43:36 50° E 18:49:33 10° NNE
Cosmos 1408 3.2 18:40:05 10° NNW 18:43:40 56° W 18:47:15 10° S
GEOS 3 Rocket 3.6 18:41:31 33° SE 18:44:03 88° NE 18:49:30 10° NW
SeaSat 1 2.4 18:43:27 48° ESE 18:44:36 62° NE 18:49:30 10° NNW
Cosmos 1656 3.9 18:39:10 10° SW 18:44:44 71° WNW 18:50:25 10° NNE
NOSS 3-4 (A) 3.8 18:38:43 10° NW 18:45:31 66° NE 18:48:36 37° ESE
NOSS 3-4 (C) 3.8 18:38:50 10° NW 18:45:37 66° NE 18:48:40 37° ESE
USA 308 3.5 18:43:10 10° WNW 18:47:20 52° SW 18:48:20 41° S
Cosmos 1812 Rocket 3.4 18:43:51 10° S 18:48:14 76° E 18:52:37 10° NNE
Cosmos 1844 Rocket 4.4 18:44:49 10° N 18:48:28 18° NNE 18:48:28 18° NNE
Cosmos 2369 3.6 18:43:09 10° SSW 18:48:47 65° ESE 18:51:18 33° NE
DEBRIS 4.4 18:30:48 10° WSW 18:49:52 63° SSE 18:51:52 43° ESE
Cosmos 1892 4.5 18:46:36 10° NNW 18:50:08 33° W 18:53:38 10° SSW
NOSS 3-3 (A) 3.8 18:50:36 10° SSW 18:56:27 74° SE 18:59:03 38° NE
Cosmos 2227 Rocket 3.8 18:51:29 10° NW 18:56:32 34° WSW 19:01:33 10° S
NOSS 3-3 (C) 3.8 18:50:42 10° SSW 18:56:34 73° SE 18:59:06 39° NE
USA 215 3.4 18:54:35 41° ENE 18:56:47 62° NNE 19:03:13 10° WNW
MOS 1 Rocket 3.2 18:52:35 10° NNE 18:57:17 83° ESE 19:02:15 10° SSW
CSL-04 Rocket 3.8 18:53:40 10° S 18:59:12 74° WSW 19:04:45 10° NNW
Cosmos 2263 Rocket 2.3 18:55:20 10° NNW 19:00:57 55° NE 19:01:09 54° ENE
CZ-4 R/B 3.2 19:02:02 10° SSW 19:05:27 29° W 19:08:53 10° NNW
Cosmos 2151 3.6 19:02:01 10° N 19:05:02 46° N 19:05:02 46° N
ATLAS 2AS CENTAUR R/B 2.8 19:00:04 10° NW 19:07:42 70° NE 19:09:28 52° ESE
Cosmos 1825 3.2 19:04:50 10° NNW 19:08:29 45° W 19:09:13 40° SW
BREEZE-M R/B 4.0 19:04:13 10° W 19:08:38 67° SSW 19:10:34 47° SE
Lacrosse 5 2.3 19:06:37 10° WNW 19:11:26 48° NNE 19:11:26 48° NNE
Cosmos 1697 Rocket 2.7 19:08:16 10° SW 19:13:52 76° WNW 19:16:32 33° NNE
Cosmos 1777 Rocket 3.9 19:09:49 10° NNW 19:14:48 77° NNE 19:14:48 77° NNE
Cosmos 44 Rocket 4.2 19:14:12 10° SSW 19:17:10 38° SSW 19:17:10 38° SSW
SL-4 R/B 3.3 19:16:07 10° WNW 19:18:22 34° W 19:18:22 34° W
Cosmos 1315 Rocket 4.4 19:24:17 10° SW 19:27:54 33° WNW 19:29:52 21° NNW
Cosmos 1980 Rocket 2.8 19:31:22 10° SSW 19:35:17 47° SSW 19:35:17 47° SSW
Cosmos 2184 Rocket 4.4 19:53:16 10° N 19:58:07 56° NNW 19:58:07 56° NNW
SJ 16-02 4.0 19:55:15 10° NNW 19:55:54 14° NNW 19:55:54 14° NNW
COSMOS 2455 4.4 19:55:29 10° NNW 19:58:59 26° N 19:58:59 26° N
CZ-4C R/B 2.9 19:55:53 10° NW 20:02:11 71° N 20:02:11 71° N
Ariane Rocket 4.5 20:10:59 34° NW 20:10:59 34° NW 20:14:09 10° NNW
ATLAS 5 CENTAUR R/B 4.2 20:15:53 10° NW 20:17:48 19° NNW 20:17:48 19° NNW
SeaSat 1 4.5 20:23:15 23° W 20:23:15 23° W 20:26:29 10° NW
USA 215 4.1 20:41:56 44° WNW 20:41:56 44° WNW 20:46:20 10° WNW
Cosmos 2263 Rocket 4.1 20:39:42 10° NW 20:42:51 26° WNW 20:42:51 26° WNW
ATLAS 2AS CENTAUR R/B 4.1 20:51:38 10° NW 20:56:55 33° W 20:56:55 33° W
